TimeEDT,TemperatureF,Dew PointF,Humidity,Sea Level PressureIn,VisibilityMPH,Wind Direction,Wind SpeedMPH,Gust SpeedMPH,PrecipitationIn,Events,Conditions,WindDirDegrees,DateUTC
12:51 AM,45.0,44.1,97,30.14,10.0,Calm,Calm,-,N/A,,Clear,0,2013-09-19 04:51:00
1:51 AM,44.1,42.1,93,30.13,10.0,Calm,Calm,-,N/A,,Clear,0,2013-09-19 05:51:00
2:51 AM,41.0,41.0,100,30.13,10.0,Calm,Calm,-,N/A,,Clear,0,2013-09-19 06:51:00
3:51 AM,41.0,39.9,96,30.12,10.0,Calm,Calm,-,N/A,,Clear,0,2013-09-19 07:51:00
4:51 AM,41.0,41.0,100,30.12,10.0,Calm,Calm,-,N/A,,Clear,0,2013-09-19 08:51:00
5:51 AM,42.1,41.0,96,30.12,10.0,Calm,Calm,-,N/A,,Clear,0,2013-09-19 09:51:00
6:51 AM,39.9,39.0,97,30.14,10.0,Calm,Calm,-,N/A,,Clear,0,2013-09-19 10:51:00
7:51 AM,48.0,46.0,93,30.15,10.0,Calm,Calm,-,N/A,,Clear,0,2013-09-19 11:51:00
8:51 AM,55.9,50.0,80,30.14,10.0,Calm,Calm,-,N/A,,Clear,0,2013-09-19 12:51:00
9:51 AM,62.1,48.0,60,30.14,10.0,North,4.6,-,N/A,,Clear,10,2013-09-19 13:51:00
10:51 AM,66.9,51.1,57,30.14,10.0,Variable,3.5,-,N/A,,Clear,0,2013-09-19 14:51:00
11:51 AM,71.1,51.1,49,30.12,10.0,Calm,Calm,-,N/A,,Clear,0,2013-09-19 15:51:00
12:51 PM,73.0,48.9,42,30.11,10.0,Variable,6.9,-,N/A,,Clear,0,2013-09-19 16:51:00
1:51 PM,75.0,48.0,38,30.09,10.0,Variable,3.5,-,N/A,,Clear,0,2013-09-19 17:51:00
2:51 PM,77.0,46.0,33,30.06,10.0,WSW,4.6,-,N/A,,Clear,250,2013-09-19 18:51:00
3:51 PM,77.0,46.9,34,30.04,10.0,Calm,Calm,-,N/A,,Clear,0,2013-09-19 19:51:00
4:51 PM,75.9,48.0,37,30.04,10.0,WSW,3.5,-,N/A,,Clear,240,2013-09-19 20:51:00
5:51 PM,75.0,50.0,41,30.04,10.0,Calm,Calm,-,N/A,,Clear,0,2013-09-19 21:51:00
6:51 PM,64.9,57.0,75,30.04,10.0,Calm,Calm,-,N/A,,Clear,0,2013-09-19 22:51:00
7:51 PM,57.9,55.0,90,30.06,10.0,Calm,Calm,-,N/A,,Clear,0,2013-09-19 23:51:00
8:51 PM,55.9,55.9,100,30.07,10.0,Calm,Calm,-,N/A,,Clear,0,2013-09-20 00:51:00
9:51 PM,53.1,53.1,100,30.07,10.0,Calm,Calm,-,N/A,,Clear,0,2013-09-20 01:51:00
10:51 PM,53.1,52.0,96,30.06,7.0,Calm,Calm,-,N/A,,Clear,0,2013-09-20 02:51:00
11:51 PM,50.0,48.9,96,30.06,7.0,Calm,Calm,-,N/A,,Clear,0,2013-09-20 03:51:00